Flag for Germany Weather past 2 weeks in Elmshorn, Schleswig-Holstein, Germany

Now
36 °F

Partly cloudy.


Feels Like: 25 °F
Forecast: 32 / 35 °F
Wind: 20 mph from Southwest

Location: Hamburg-Fuhlsbuettel

Current Time: Jan 29, 2015 at 5:53:34 AM

Latest Report: Jan 29, 2015 at 5:20 AM


Visibility: N/A

Pressure: 29.12 "Hg

Humidity: 87%

Dew point: 32 °F

Location of ElmshornLocation

Historic Weather in Elmshorn — Graph

°F

Elmshorn temperature yesterday

Maximum temperature yesterday: 43 °F (at 2:50 PM)
Minimum temperature yesterday: 37 °F (at 12:20 AM)
Average temperature yesterday: 39 °F

Past Weeks' High & Low Weather Summary

 TemperatureHumidityPressure
High50 °F (Jan 15, 8:20 PM)100% (Jan 14, 6:20 AM)30.30 "Hg (Jan 14, 6:20 AM)
Low25 °F (Jan 21, 5:50 AM)70% (Jan 17, 12:50 PM)29.15 "Hg (Jan 28, 7:50 PM)
Average35 °F91%29.90 "Hg
* Reported Jan 14 4:20 AM — Jan 29 4:20 AM, Elmshorn, Weather by CustomWeather, © 2014

Note: Actual official high and low records may vary slightly from our data, if they occured in-between our weather recording intervals... More about our weather records

Advertising

Elmshorn weather history for previous 24 hours

 ConditionsComfort  
Time TempWeatherWind HumidityBarometerVisibility
4:20 AM
Jan 29
36 °FPartly cloudy.17 mph87%29.15 "HgN/A
3:50 AM36 °FPartly cloudy.20 mph87%29.15 "HgN/A
3:20 AM37 °FPartly cloudy.20 mph81%29.15 "HgN/A
2:50 AM37 °FPassing clouds.18 mph81%29.15 "HgN/A
2:20 AM37 °FPassing clouds.20 mph81%29.15 "HgN/A
1:50 AM37 °FPassing clouds.21 mph87%29.15 "HgN/A
1:20 AM36 °FPartly cloudy.22 mph93%29.15 "HgN/A
12:50 AM36 °FPartly cloudy.23 mph93%29.15 "HgN/A
12:20 AM37 °FPartly cloudy.22 mph87%29.15 "HgN/A
11:50 PM
Jan 28
37 °FPartly cloudy.20 mph87%29.15 "HgN/A
11:20 PM37 °FPartly cloudy.20 mph81%29.15 "HgN/A
10:20 PM37 °FPassing clouds.14 mph87%29.18 "HgN/A
9:50 PM37 °FPassing clouds.16 mph87%29.18 "HgN/A
9:20 PM39 °FPassing clouds.20 mph81%29.18 "HgN/A
8:50 PM39 °FLight rain. Passing clouds.21 mph87%29.15 "HgN/A
8:20 PM39 °FPartly cloudy.17 mph93%29.15 "HgN/A
7:50 PM39 °FLight rain. Partly cloudy.20 mph93%29.15 "HgN/A
7:20 PM39 °FLight rain. Passing clouds.22 mph87%29.18 "HgN/A
6:50 PM39 °FLight rain. Passing clouds.21 mph87%29.18 "Hg5 mi
6:20 PM39 °FRain. Passing clouds.21 mph93%29.21 "Hg4 mi
5:50 PM39 °FRain. Passing clouds.24 mph93%29.24 "Hg4 mi
5:20 PM41 °FRain. Passing clouds.22 mph87%29.27 "Hg4 mi
4:50 PM41 °FLight rain. Broken clouds.23 mph87%29.27 "Hg6 mi
4:20 PM43 °FLight rain. Partly sunny.24 mph81%29.30 "Hg5 mi
3:50 PM43 °FPartly sunny.22 mph81%29.33 "HgN/A
3:20 PM43 °FPartly sunny.23 mph81%29.39 "HgN/A
2:50 PM43 °FPartly sunny.22 mph81%29.42 "HgN/A
2:20 PM41 °FPartly sunny.23 mph87%29.45 "HgN/A
1:50 PM41 °FPartly sunny.21 mph87%29.47 "HgN/A
1:20 PM41 °FPartly sunny.22 mph87%29.50 "HgN/A
12:50 PM41 °FPartly sunny.18 mph87%29.53 "Hg6 mi
12:20 PM41 °FPartly sunny.20 mph87%29.59 "Hg6 mi
11:50 AM41 °FPartly sunny.18 mph87%29.62 "Hg5 mi
11:20 AM41 °FPartly sunny.18 mph87%29.65 "Hg4 mi
10:50 AM41 °FPartly sunny.20 mph87%29.68 "Hg4 mi
10:20 AM41 °FPartly sunny.20 mph87%29.71 "Hg4 mi
9:50 AM39 °FPartly sunny.20 mph93%29.74 "Hg4 mi
9:20 AM39 °FLow clouds.17 mph93%29.77 "Hg3 mi
8:50 AM39 °FDrizzle. Low clouds.17 mph93%29.77 "Hg2 mi
8:20 AM39 °FFog.17 mph93%29.80 "Hg3 mi
7:50 AM39 °FDrizzle. Low clouds.16 mph93%29.83 "Hg2 mi
7:20 AM39 °FLow clouds.15 mph93%29.83 "Hg4 mi
6:50 AM39 °FDrizzle. Low clouds.15 mph93%29.83 "Hg3 mi
6:20 AM39 °FLow clouds.15 mph93%29.86 "Hg4 mi
5:50 AM39 °FPassing clouds.12 mph93%29.89 "Hg4 mi
5:20 AM39 °FPassing clouds.12 mph93%29.89 "Hg4 mi
Weather by CustomWeather, © 2014

See weather overviewHow to use our weather pages